QPF
0.09 0.10 0.09 0.07 0.07 0.06 0.07 0.10 0.12 0.12 0.11 0.11 0.11 0.14 0.15 0.12 0.10 0.08 0.07 0.08 0.08 0.06 0.04 0.03 0.02 0.02 0.02 0.03 0.03 0.03 0.04 0.05 0.07 0.07 0.07 0.08 0.09 0.09
0.07 0.08 0.08 0.07 0.07 0.06 0.07 0.09 0.11 0.13 0.12 0.12 0.12 0.12 0.13 0.10 0.10 0.08 0.08 0.09 0.09 0.07 0.06 0.04 0.02 0.02 0.02 0.02 0.03 0.03 0.04 0.04 0.05 0.05 0.06 0.06 0.07 0.08
0.06 0.06 0.05 0.06 0.06 0.07 0.08 0.10 0.12 0.12 0.10 0.10 0.10 0.10 0.10 0.10 0.11 0.11 0.10 0.08 0.07 0.07 0.06 0.04 0.04 0.04 0.04 0.04 0.04 0.04 0.04 0.04 0.04 0.05 0.06 0.06 0.07 0.08
0.05 0.07 0.06 0.07 0.07 0.08 0.09 0.10 0.11 0.11 0.11 0.09 0.08 0.09 0.10 0.11 0.11 0.10 0.08 0.07 0.05 0.05 0.04 0.05 0.05 0.05 0.06 0.06 0.06 0.05 0.03 0.03 0.03 0.03 0.04 0.04 0.05 0.05
0.05 0.07 0.07 0.08 0.08 0.09 0.10 0.11 0.11 0.11 0.11 0.08 0.08 0.09 0.10 0.10 0.11 0.08 0.06 0.06 0.03 0.03 0.04 0.05 0.06 0.05 0.04 0.03 0.03 0.03 0.03 0.02 0.02 0.02 0.03 0.03 0.04 0.04
0.04 0.05 0.04 0.06 0.07 0.07 0.07 0.10 0.10 0.10 0.09 0.08 0.08 0.08 0.10 0.10 0.08 0.07 0.06 0.05 0.04 0.03 0.04 0.03 0.03 0.03 0.03 0.02 0.02 0.02 0.02 0.02 0.02 0.02 0.02 0.02 0.02 0.02
0.04 0.05 0.03 0.04 0.05 0.05 0.06 0.07 0.07 0.07 0.08 0.07 0.07 0.06 0.07 0.07 0.06 0.06 0.05 0.05 0.05 0.04 0.04 0.04 0.04 0.04 0.03 0.02 0.01 0.01 0.01 0.02 0.02 0.01 0.01 0.01 0.01 0.01
0.04 0.05 0.05 0.04 0.03 0.03 0.04 0.04 0.06 0.06 0.06 0.06 0.06 0.06 0.05 0.05 0.05 0.04 0.04 0.04 0.04 0.04 0.04 0.02 0.02 0.03 0.03 0.02 0.02 0.03 0.02 0.02 0.02 0.02 0.01 0.01 0.01 0.01
0.05 0.06 0.05 0.03 0.02 0.02 0.04 0.03 0.03 0.03 0.04 0.06 0.05 0.05 0.04 0.05 0.05 0.04 0.05 0.04 0.03 0.03 0.03 0.03 0.03 0.03 0.02 0.02 0.02 0.02 0.02 0.01 0.01 0.01 0.01 0.01 0.00 0.00
0.05 0.07 0.07 0.05 0.03 0.03 0.03 0.04 0.04 0.03 0.03 0.03 0.03 0.04 0.04 0.04 0.03 0.03 0.03 0.02 0.02 0.02 0.02 0.02 0.03 0.02 0.01 0.01 0.02 0.02 0.02 0.01 0.01 0.01 0.00 0.00 0.00 0.00
0.02 0.04 0.06 0.06 0.05 0.03 0.04 0.04 0.04 0.03 0.03 0.03 0.03 0.03 0.02 0.01 0.01 0.02 0.01 0.01 0.01 0.01 0.02 0.02 0.02 0.02 0.01 0.01 0.01 0.02 0.02 0.03 0.03 0.03 0.03 0.02 0.02 0.02
0.04 0.04 0.04 0.04 0.03 0.02 0.03 0.04 0.05 0.06 0.04 0.03 0.02 0.01 0.01 0.01 0.01 0.01 0.01 0.01 0.01 0.01 0.01 0.02 0.02 0.02 0.02 0.01 0.01 0.02 0.03 0.04 0.05 0.06 0.07 0.06 0.04 0.03
0.05 0.05 0.04 0.03 0.01 0.01 0.02 0.03 0.05 0.06 0.04 0.02 0.02 0.02 0.02 0.02 0.01 0.01 0.01 0.02 0.02 0.02 0.02 0.03 0.03 0.03 0.03 0.03 0.03 0.03 0.04 0.05 0.06 0.08 0.09 0.09 0.07 0.05
0.04 0.05 0.04 0.03 0.02 0.01 0.01 0.03 0.03 0.03 0.03 0.03 0.03 0.03 0.03 0.03 0.02 0.02 0.04 0.04 0.04 0.04 0.04 0.03 0.03 0.03 0.02 0.02 0.02 0.03 0.04 0.04 0.05 0.05 0.05 0.05 0.05 0.04
0.03 0.04 0.03 0.03 0.03 0.02 0.02 0.02 0.02 0.01 0.02 0.03 0.03 0.02 0.02 0.02 0.03 0.05 0.06 0.07 0.07 0.06 0.05 0.04 0.03 0.03 0.03 0.02 0.01 0.01 0.02 0.02 0.03 0.03 0.04 0.04 0.05 0.05
0.03 0.04 0.04 0.03 0.03 0.02 0.03 0.02 0.02 0.02 0.03 0.03 0.04 0.04 0.04 0.04 0.05 0.05 0.05 0.06 0.06 0.06 0.06 0.04 0.04 0.04 0.03 0.02 0.02 0.02 0.02 0.02 0.03 0.03 0.04 0.04 0.04 0.03
0.05 0.06 0.05 0.04 0.03 0.03 0.02 0.03 0.04 0.05 0.06 0.07 0.07 0.05 0.05 0.04 0.03 0.03 0.04 0.04 0.04 0.04 0.03 0.03 0.03 0.03 0.03 0.03 0.03 0.03 0.03 0.03 0.03 0.02 0.02 0.02 0.02 0.02
0.05 0.05 0.04 0.03 0.03 0.03 0.03 0.03 0.04 0.04 0.04 0.04 0.03 0.03 0.02 0.03 0.03 0.02 0.02 0.02 0.01 0.01 0.01 0.01 0.01 0.02 0.02 0.02 0.02 0.02 0.03 0.03 0.03 0.03 0.03 0.03 0.03 0.03
0.05 0.06 0.05 0.05 0.05 0.06 0.05 0.04 0.04 0.04 0.04 0.04 0.03 0.02 0.02 0.01 0.01 0.02 0.01 0.01 0.01 0.01 0.01 0.01 0.01 0.02 0.02 0.02 0.02 0.03 0.04 0.03 0.03 0.03 0.04 0.05 0.06 0.06
0.03 0.04 0.04 0.04 0.04 0.04 0.04 0.04 0.04 0.04 0.04 0.04 0.03 0.02 0.01 0.01 0.01 0.01 0.01 0.01 0.01 0.01 0.01 0.02 0.01 0.02 0.02 0.02 0.01 0.01 0.02 0.02 0.03 0.04 0.05 0.07 0.07 0.08
0.02 0.02 0.02 0.03 0.03 0.03 0.03 0.03 0.03 0.03 0.03 0.04 0.04 0.04 0.03 0.03 0.03 0.02 0.02 0.03 0.02 0.02 0.02 0.01 0.01 0.01 0.01 0.01 0.01 0.01 0.01 0.01 0.01 0.01 0.02 0.03 0.04 0.04
0.02 0.02 0.02 0.03 0.03 0.03 0.03 0.03 0.03 0.04 0.04 0.04 0.04 0.03 0.03 0.03 0.03 0.03 0.02 0.02 0.01 0.01 0.01 0.02 0.02 0.02 0.02 0.02 0.01 0.02 0.01 0.01 0.01 0.01 0.01 0.01 0.01 0.02
0.03 0.03 0.03 0.02 0.02 0.02 0.02 0.02 0.02 0.03 0.03 0.04 0.04 0.03 0.02 0.02 0.02 0.02 0.02 0.02 0.02 0.01 0.01 0.01 0.01 0.01 0.01 0.01 0.01 0.01 0.01 0.01 0.01 0.01 0.01 0.01 0.00 0.01
MSLP
1014.36 1014.61 1014.91 1015.24 1015.60 1015.96 1016.31 1016.62 1016.88 1017.08 1017.23 1017.35 1017.46 1017.57 1017.70 1017.86 1018.05 1018.25 1018.46 1018.67 1018.86 1019.03 1019.17 1019.29 1019.40 1019.48 1019.55 1019.59 1019.62 1019.62 1019.60 1019.57 1019.52 1019.46 1019.39 1019.32 1019.24 1019.15
1014.18 1014.43 1014.69 1014.99 1015.31 1015.67 1016.04 1016.40 1016.75 1017.07 1017.36 1017.62 1017.86 1018.09 1018.30 1018.51 1018.71 1018.91 1019.09 1019.27 1019.43 1019.58 1019.72 1019.85 1019.97 1020.07 1020.16 1020.22 1020.26 1020.26 1020.24 1020.19 1020.12 1020.04 1019.95 1019.85 1019.75 1019.63
1014.13 1014.36 1014.58 1014.82 1015.09 1015.41 1015.77 1016.17 1016.58 1017.00 1017.42 1017.81 1018.18 1018.52 1018.82 1019.08 1019.31 1019.51 1019.69 1019.84 1019.99 1020.13 1020.27 1020.40 1020.54 1020.67 1020.78 1020.86 1020.91 1020.92 1020.90 1020.84 1020.76 1020.66 1020.55 1020.43 1020.31 1020.18
1014.26 1014.46 1014.63 1014.81 1015.02 1015.29 1015.62 1016.02 1016.47 1016.96 1017.47 1017.97 1018.45 1018.88 1019.25 1019.57 1019.83 1020.03 1020.20 1020.34 1020.46 1020.59 1020.73 1020.88 1021.03 1021.17 1021.31 1021.41 1021.48 1021.50 1021.47 1021.41 1021.32 1021.21 1021.08 1020.96 1020.83 1020.69
1014.61 1014.77 1014.89 1015.01 1015.16 1015.37 1015.66 1016.04 1016.51 1017.04 1017.60 1018.17 1018.71 1019.21 1019.63 1019.98 1020.24 1020.45 1020.60 1020.72 1020.83 1020.94 1021.07 1021.22 1021.38 1021.54 1021.68 1021.80 1021.88 1021.91 1021.89 1021.82 1021.72 1021.60 1021.47 1021.34 1021.20 1021.07
1015.17 1015.30 1015.38 1015.44 1015.54 1015.70 1015.95 1016.30 1016.75 1017.28 1017.86 1018.45 1019.02 1019.54 1019.97 1020.32 1020.59 1020.77 1020.90 1021.00 1021.08 1021.18 1021.29 1021.43 1021.58 1021.74 1021.89 1022.01 1022.09 1022.12 1022.10 1022.03 1021.93 1021.80 1021.67 1021.52 1021.38 1021.24
1015.90 1016.01 1016.06 1016.09 1016.15 1016.27 1016.48 1016.80 1017.21 1017.71 1018.27 1018.84 1019.39 1019.89 1020.31 1020.64 1020.87 1021.03 1021.13 1021.20 1021.26 1021.32 1021.42 1021.53 1021.67 1021.81 1021.95 1022.06 1022.13 1022.15 1022.12 1022.05 1021.94 1021.80 1021.66 1021.50 1021.35 1021.20
1016.73 1016.83 1016.87 1016.90 1016.94 1017.04 1017.22 1017.49 1017.86 1018.31 1018.81 1019.32 1019.82 1020.27 1020.65 1020.93 1021.13 1021.26 1021.33 1021.37 1021.40 1021.44 1021.51 1021.60 1021.71 1021.82 1021.93 1022.01 1022.05 1022.05 1022.01 1021.92 1021.79 1021.65 1021.49 1021.32 1021.14 1020.97
1017.57 1017.68 1017.74 1017.78 1017.83 1017.92 1018.08 1018.31 1018.63 1019.01 1019.43 1019.87 1020.29 1020.67 1020.98 1021.22 1021.38 1021.48 1021.52 1021.54 1021.56 1021.58 1021.63 1021.69 1021.76 1021.84 1021.90 1021.94 1021.94 1021.91 1021.83 1021.71 1021.57 1021.40 1021.21 1021.02 1020.82 1020.62
1018.37 1018.50 1018.60 1018.67 1018.74 1018.84 1018.98 1019.18 1019.43 1019.74 1020.08 1020.43 1020.76 1021.06 1021.31 1021.50 1021.63 1021.71 1021.76 1021.78 1021.79 1021.81 1021.83 1021.86 1021.90 1021.93 1021.94 1021.92 1021.87 1021.79 1021.66 1021.51 1021.33 1021.13 1020.92 1020.70 1020.47 1020.23
1019.07 1019.23 1019.37 1019.49 1019.59 1019.70 1019.84 1020.00 1020.20 1020.44 1020.69 1020.95 1021.21 1021.44 1021.63 1021.79 1021.91 1021.99 1022.04 1022.08 1022.11 1022.13 1022.15 1022.16 1022.16 1022.14 1022.09 1022.01 1021.90 1021.75 1021.57 1021.37 1021.15 1020.91 1020.67 1020.42 1020.16 1019.90
1019.67 1019.87 1020.05 1020.21 1020.35 1020.48 1020.61 1020.75 1020.90 1021.06 1021.24 1021.42 1021.61 1021.78 1021.94 1022.08 1022.20 1022.31 1022.39 1022.46 1022.52 1022.55 1022.57 1022.57 1022.53 1022.46 1022.35 1022.21 1022.02 1021.81 1021.57 1021.32 1021.05 1020.78 1020.50 1020.23 1019.95 1019.67
1020.19 1020.43 1020.65 1020.84 1021.01 1021.15 1021.27 1021.39 1021.49 1021.61 1021.72 1021.84 1021.97 1022.11 1022.25 1022.39 1022.52 1022.65 1022.78 1022.89 1022.97 1023.03 1023.06 1023.04 1022.97 1022.86 1022.69 1022.48 1022.23 1021.95 1021.65 1021.35 1021.04 1020.73 1020.43 1020.14 1019.85 1019.57
1020.66 1020.92 1021.16 1021.38 1021.56 1021.71 1021.83 1021.92 1022.00 1022.07 1022.14 1022.22 1022.31 1022.42 1022.55 1022.70 1022.85 1023.02 1023.17 1023.31 1023.43 1023.50 1023.53 1023.50 1023.40 1023.25 1023.03 1022.76 1022.46 1022.12 1021.78 1021.43 1021.09 1020.75 1020.43 1020.13 1019.84 1019.56
1021.10 1021.36 1021.60 1021.82 1022.01 1022.16 1022.27 1022.35 1022.41 1022.46 1022.50 1022.56 1022.63 1022.73 1022.86 1023.01 1023.18 1023.36 1023.54 1023.70 1023.82 1023.90 1023.92 1023.87 1023.75 1023.56 1023.30 1022.99 1022.65 1022.28 1021.89 1021.52 1021.15 1020.80 1020.47 1020.16 1019.87 1019.60
1021.49 1021.73 1021.96 1022.17 1022.36 1022.50 1022.61 1022.68 1022.74 1022.78 1022.81 1022.86 1022.93 1023.03 1023.15 1023.30 1023.47 1023.65 1023.83 1023.98 1024.10 1024.16 1024.16 1024.09 1023.94 1023.73 1023.44 1023.11 1022.74 1022.35 1021.95 1021.56 1021.18 1020.82 1020.48 1020.17 1019.88 1019.61
1021.81 1022.02 1022.22 1022.41 1022.57 1022.71 1022.82 1022.90 1022.97 1023.02 1023.07 1023.12 1023.20 1023.29 1023.41 1023.55 1023.70 1023.86 1024.01 1024.13 1024.22 1024.25 1024.22 1024.12 1023.95 1023.71 1023.42 1023.07 1022.70 1022.30 1021.90 1021.51 1021.13 1020.76 1020.42 1020.10 1019.80 1019.52
1022.01 1022.17 1022.34 1022.50 1022.64 1022.78 1022.90 1023.00 1023.09 1023.17 1023.24 1023.32 1023.41 1023.51 1023.61 1023.73 1023.85 1023.96 1024.06 1024.14 1024.17 1024.15 1024.08 1023.95 1023.76 1023.51 1023.21 1022.87 1022.51 1022.13 1021.74 1021.36 1020.98 1020.61 1020.26 1019.92 1019.60 1019.29
1022.05 1022.17 1022.30 1022.43 1022.56 1022.70 1022.84 1022.97 1023.10 1023.23 1023.35 1023.46 1023.56 1023.66 1023.76 1023.84 1023.92 1023.98 1024.01 1024.02 1023.99 1023.91 1023.79 1023.63 1023.42 1023.16 1022.87 1022.55 1022.21 1021.85 1021.48 1021.11 1020.73 1020.36 1019.99 1019.62 1019.27 1018.92
1021.93 1022.01 1022.10 1022.21 1022.35 1022.50 1022.67 1022.85 1023.03 1023.21 1023.38 1023.53 1023.66 1023.76 1023.84 1023.89 1023.92 1023.92 1023.88 1023.81 1023.72 1023.58 1023.42 1023.22 1022.99 1022.74 1022.46 1022.15 1021.83 1021.49 1021.14 1020.78 1020.41 1020.03 1019.63 1019.24 1018.84 1018.45
1021.65 1021.71 1021.79 1021.90 1022.04 1022.23 1022.44 1022.68 1022.92 1023.15 1023.37 1023.56 1023.71 1023.82 1023.89 1023.91 1023.88 1023.81 1023.71 1023.58 1023.42 1023.23 1023.03 1022.80 1022.56 1022.30 1022.03 1021.74 1021.44 1021.11 1020.77 1020.42 1020.04 1019.64 1019.23 1018.80 1018.37 1017.94
1021.27 1021.33 1021.41 1021.54 1021.72 1021.95 1022.21 1022.50 1022.80 1023.09 1023.36 1023.58 1023.76 1023.87 1023.91 1023.90 1023.83 1023.71 1023.55 1023.36 1023.14 1022.92 1022.68 1022.43 1022.18 1021.92 1021.64 1021.36 1021.06 1020.75 1020.41 1020.05 1019.66 1019.25 1018.82 1018.37 1017.91 1017.45
1020.86 1020.94 1021.05 1021.22 1021.44 1021.71 1022.03 1022.38 1022.73 1023.07 1023.37 1023.62 1023.80 1023.91 1023.94 1023.89 1023.78 1023.62 1023.41 1023.18 1022.92 1022.67 1022.40 1022.14 1021.88 1021.61 1021.34 1021.05 1020.75 1020.43 1020.08 1019.71 1019.31 1018.89 1018.45 1017.99 1017.51 1017.04
Thickness
5756 5755 5754 5754 5754 5753 5751 5746 5738 5730 5731 5736 5737 5739 5738 5735 5732 5730 5728 5725 5723 5721 5718 5716 5714 5712 5711 5710 5709 5707 5706 5704 5703 5701 5699 5698 5696 5694
5755 5754 5753 5753 5752 5752 5750 5748 5745 5738 5732 5735 5735 5736 5735 5733 5729 5726 5724 5721 5719 5717 5714 5712 5709 5708 5706 5705 5703 5702 5701 5699 5698 5696 5695 5693 5691 5690
5754 5752 5751 5751 5750 5749 5749 5747 5744 5741 5733 5732 5734 5733 5731 5728 5724 5722 5719 5717 5714 5712 5710 5707 5705 5703 5700 5699 5697 5695 5694 5693 5691 5690 5688 5687 5685 5683
5750 5749 5748 5749 5747 5747 5746 5744 5742 5740 5734 5728 5727 5727 5725 5724 5720 5717 5715 5713 5710 5707 5705 5702 5700 5697 5694 5692 5690 5688 5687 5686 5684 5682 5681 5679 5677 5676
5749 5747 5745 5745 5743 5743 5742 5741 5739 5738 5734 5728 5723 5723 5720 5719 5715 5712 5710 5707 5706 5702 5700 5697 5694 5691 5688 5685 5683 5681 5680 5678 5676 5674 5672 5670 5669 5667
5746 5744 5742 5741 5739 5739 5737 5736 5734 5732 5729 5724 5720 5717 5715 5713 5710 5706 5702 5701 5700 5698 5694 5691 5687 5684 5681 5678 5676 5674 5672 5670 5668 5666 5664 5661 5659 5657
5742 5740 5738 5736 5735 5734 5733 5730 5729 5725 5722 5718 5714 5711 5708 5705 5703 5702 5697 5695 5693 5691 5688 5685 5681 5677 5673 5670 5668 5666 5664 5662 5659 5657 5655 5652 5650 5647
5737 5736 5734 5732 5730 5728 5727 5725 5723 5719 5715 5712 5708 5704 5701 5700 5699 5697 5692 5688 5684 5684 5681 5678 5676 5671 5668 5664 5661 5658 5656 5653 5651 5648 5645 5643 5640 5637
5732 5730 5730 5728 5725 5723 5720 5718 5716 5713 5711 5707 5702 5699 5696 5695 5692 5690 5687 5682 5678 5677 5675 5670 5668 5664 5660 5657 5654 5651 5648 5645 5642 5638 5636 5633 5630 5628
5727 5724 5722 5719 5718 5716 5714 5710 5707 5705 5704 5701 5698 5695 5693 5691 5688 5686 5682 5678 5674 5671 5668 5662 5659 5656 5653 5648 5645 5642 5638 5635 5632 5629 5626 5623 5620 5617
5721 5718 5716 5713 5710 5709 5706 5703 5699 5697 5695 5694 5691 5689 5687 5684 5682 5679 5674 5670 5664 5660 5659 5655 5651 5648 5644 5639 5636 5632 5628 5625 5621 5618 5615 5612 5609 5605
5714 5711 5707 5705 5702 5701 5699 5695 5691 5689 5688 5686 5683 5681 5679 5676 5673 5670 5666 5661 5656 5652 5650 5647 5643 5639 5634 5630 5626 5622 5618 5615 5611 5607 5604 5601 5597 5593
5707 5703 5699 5697 5695 5693 5691 5688 5685 5683 5681 5679 5677 5674 5671 5668 5665 5661 5658 5654 5649 5643 5642 5639 5634 5630 5625 5620 5616 5613 5609 5605 5601 5597 5594 5590 5586 5582
5699 5696 5692 5689 5687 5686 5684 5681 5679 5677 5675 5673 5669 5665 5662 5658 5655 5653 5650 5646 5642 5638 5634 5631 5625 5620 5615 5611 5606 5603 5600 5596 5592 5588 5583 5579 5574 5570
5692 5688 5684 5682 5679 5677 5675 5673 5671 5670 5668 5664 5660 5657 5654 5651 5648 5644 5641 5637 5634 5631 5627 5622 5618 5613 5608 5602 5598 5594 5589 5586 5582 5577 5572 5568 5564 5560
5682 5679 5676 5674 5672 5670 5668 5666 5664 5662 5660 5656 5652 5649 5647 5643 5639 5636 5632 5628 5624 5620 5617 5613 5609 5605 5599 5595 5589 5584 5580 5574 5570 5566 5561 5558 5554 5550
5675 5672 5671 5669 5666 5664 5661 5659 5657 5654 5651 5648 5644 5640 5637 5634 5630 5627 5623 5619 5614 5610 5606 5603 5599 5595 5590 5584 5578 5573 5568 5563 5559 5555 5550 5547 5543 5539
5668 5666 5664 5662 5659 5657 5654 5651 5648 5645 5642 5639 5635 5632 5628 5625 5621 5618 5614 5609 5604 5600 5596 5592 5588 5583 5578 5573 5567 5563 5558 5553 5549 5545 5541 5536 5532 5528
5661 5660 5658 5655 5652 5649 5646 5643 5640 5637 5634 5630 5626 5623 5620 5616 5612 5608 5604 5599 5595 5591 5587 5583 5577 5572 5566 5561 5556 5553 5548 5544 5539 5535 5531 5526 5521 5517
5654 5652 5650 5647 5644 5640 5637 5635 5632 5628 5624 5621 5618 5614 5610 5607 5603 5598 5594 5590 5585 5581 5577 5573 5567 5562 5557 5553 5548 5544 5540 5535 5530 5525 5521 5517 5511 5506
5647 5645 5642 5639 5635 5632 5629 5626 5623 5619 5616 5612 5609 5605 5602 5598 5593 5589 5585 5579 5575 5571 5566 5562 5558 5555 5551 5546 5540 5536 5531 5526 5522 5516 5512 5508 5503 5499
5640 5637 5634 5630 5627 5623 5620 5617 5614 5611 5607 5604 5601 5597 5594 5590 5585 5581 5576 5572 5567 5563 5558 5553 5550 5546 5541 5535 5531 5527 5523 5517 5512 5508 5504 5499 5494 5490
5632 5629 5626 5622 5618 5615 5611 5608 5605 5602 5599 5596 5593 5589 5585 5581 5576 5572 5568 5563 5558 5553 5549 5544 5541 5537 5533 5528 5523 5518 5514 5509 5505 5500 5495 5492 5488 5484